Regional Weather Roundup
Issued by NWS

Home | Current Version | Previous Version | Text Only | Print | Product List | Glossary On
Versions: 1 2 3 4 5 6 7 8 9 10 11 12 13 14 15 16 17 18 19 20 21 22 23 24 25 26 27 28 29 30 31 32 33 34 35 36 37 38 39 40 41 42 43 44 45 46 47 48 49 50
000
ASUS43 KOAX 181310
RWRNE

WEATHER ROUNDUP FOR NEBRASKA
NATIONAL WEATHER SERVICE OMAHA NE
800 AM CDT SAT APR 18 2015

NOTES: SATELLITE DATA IS BEING USED TO AUGMENT CLOUD COVER ABOVE
       12000 FEET.
       "FAIR" INDICATES FEW OR NO CLOUDS BELOW 12,000 FEET WITH NO
       SIGNIFICANT WEATHER AND/OR OBSTRUCTIONS TO VISIBILITY.

  * THESE STATIONS DO NOT REPORT WEATHER SUCH AS RAIN...SNOW OR FOG.

NEZ001>004-019>022-054>056-181400-
NEBRASKA PANHANDLE

CITY           SKY/WX    TMP DP  RH WIND       PRES   REMARKS
SCOTTSBLUFF    CLOUDY    43  32  65 W6        29.93F
ALLIANCE       CLOUDY    45  44  97 SW6       29.91R
CHADRON        LGT RAIN  47  45  93 NE9       29.95F
KIMBALL        CLOUDY    39  38  96 NW5       29.92S
SIDNEY         CLOUDY    40  38  93 NW8       29.93S WCI  34
$$

NEZ057>060-069>072-079>082-181400-
SOUTHWEST NEBRASKA

CITY           SKY/WX    TMP DP  RH WIND       PRES   REMARKS
NORTH PLATTE   PTSUNNY   47  46  97 E7        29.92R FOG
IMPERIAL       FOG       43  43 100 CALM      29.93R VSB 3/4
LEXINGTON      MOSUNNY   48  47  93 CALM      29.92R
MCCOOK         SUNNY     47  44  90 SW3       29.93R
OGALLALA       FOG       43  42  98 CALM      29.91R VSB 1
$$

NEZ005>010-023>029-035>040-094-181400-
NORTH CENTRAL NEBRASKA

CITY           SKY/WX    TMP DP  RH WIND       PRES   REMARKS
VALENTINE      RAIN      49  48  97 NE12      29.94F FOG
AINSWORTH      LGT RAIN  50  49  99 NE18      29.89F
BROKEN BOW     CLOUDY    52  51  97 N3        29.91R FOG
O`NEILL        HVY RAIN  53  52  97 W3        29.97R
ORD            CLOUDY    53  51  93 CALM      29.90
THEDFORD       CLOUDY    49  49  98 NE7       29.92F
$$

NEZ041-046>049-061>064-073>077-083>087-181400-
SOUTH CENTRAL NEBRASKA

CITY           SKY/WX    TMP DP  RH WIND       PRES   REMARKS
GRAND ISLAND   LGT RAIN  55  53  93 E12       29.89F
AURORA         CLOUDY    56  56 100 E6        29.91S
HASTINGS       CLOUDY    58  50  75 SW14      29.90R
HEBRON         LGT RAIN  58  56  92 W3        29.92F
HOLDREGE       CLOUDY    53  51  95 CALM      29.93R
KEARNEY *      CLOUDY    54  52  94 CALM      29.92S
YORK           CLOUDY    57  57 100 CALM      29.93R FOG
$$

NEZ011>018-030>034-042>045-181400-
NORTHEAST NEBRASKA

CITY           SKY/WX    TMP DP  RH WIND       PRES   REMARKS
ALBION         TSTM      56  53  90 E3        29.93R
BLAIR          CLOUDY    62  54  74 E13G18    29.92F
COLUMBUS *     CLOUDY    57  50  77 E12       29.92R
FREMONT        CLOUDY    61  55  79 E6        29.91F
TEKAMAH        CLOUDY    59  53  80 N6        29.92F
WAYNE          CLOUDY    58  53  83 E12       29.92F
$$

NEZ050>053-065>068-078-088>093-181400-
SOUTHEAST NEBRASKA

CITY           SKY/WX    TMP DP  RH WIND       PRES   REMARKS
LINCOLN        CLOUDY    61  57  87 E5        29.90F
OMAHA EPPLEY   LGT RAIN  63  56  78 E13       29.92F
BEATRICE       TSTM      59  58  97 CALM      29.92R
FALLS CITY     LGT RAIN  60  56  86 SE5       29.90S
NEBRASKA CITY  DRIZZLE   59  54  82 CALM      29.90F
PLATTSMOUTH    CLOUDY    61  54  78 E5        29.91F
$$

NEZ044-045-051>053-067-181400-
OMAHA AREA

CITY           SKY/WX    TMP DP  RH WIND       PRES   REMARKS
OMAHA EPPLEY   LGT RAIN  63  56  78 E13       29.92F
BLAIR          CLOUDY    62  54  74 E13G18    29.92F
FREMONT        CLOUDY    61  55  79 E6        29.91F
MILLARD        CLOUDY    64  56  75 E3        29.91F
OFFUTT AFB     CLOUDY    62  55  79 E6        29.90F
PLATTSMOUTH    CLOUDY    61  54  78 E5        29.91F
WAHOO          FAIR      60  55  82 E5        29.91F
$$


USA.gov is the U.S. government's official web portal to all federal, state and local government web resources and services.